Probability
0 0 0 0 0 0 0 0 0 0 0 0 0 0 0 0 0 0 0 0 0 0 0 0 0 0 0 0 0 0 0 0 0 0 0 0 0 0 0 0 0 0 0 0
0 0 0 0 0 0 0 0 0 0 0 0 0 0 0 0 0 0 0 0 0 0 0 0 0 0 0 0 0 0 0 0 0 0 0 0 0 0 0 0 0 0 0 0
0 0 0 0 0 0 0 0 0 0 0 0 0 0 0 0 0 0 0 0 0 0 0 0 0 0 0 0 0 0 0 0 0 0 0 0 0 0 0 0 0 0 0 0
0 0 0 0 0 0 0 0 0 0 0 0 0 0 0 0 0 0 0 0 0 0 0 0 0 0 0 0 0 0 0 0 0 0 0 0 0 0 0 0 0 0 0 0
0 0 0 0 0 0 0 0 0 0 0 0 0 0 0 0 0 0 0 0 0 0 0 0 0 0 0 0 0 0 0 0 0 0 0 0 0 0 0 0 0 0 0 0
0 0 0 0 0 0 0 0 0 0 0 0 0 0 0 0 0 0 0 0 0 0 0 0 0 0 0 0 0 0 0 0 0 0 0 0 0 0 0 0 0 0 0 0
0 0 0 0 0 0 0 0 0 0 0 0 0 0 0 0 0 0 0 0 0 0 0 0 0 0 0 0 0 0 0 0 0 0 0 0 0 0 0 0 0 0 0 0
0 0 0 0 0 0 0 0 0 0 0 0 0 0 0 0 0 0 0 0 0 0 0 0 0 0 0 0 0 0 0 0 0 0 0 0 0 0 0 0 0 0 0 0
0 0 0 0 0 0 0 0 0 0 0 0 0 0 0 0 0 0 0 0 0 0 0 0 0 0 0 0 0 0 0 0 0 0 0 0 0 0 0 0 0 0 0 0
0 0 0 0 0 0 0 0 0 0 0 0 0 0 0 0 0 0 0 0 0 0 0 0 0 0 0 0 0 0 0 0 0 0 0 0 0 0 0 0 0 0 0 0
0 0 0 0 0 0 0 0 0 0 0 0 0 0 0 0 0 0 0 0 0 0 0 0 0 0 0 0 0 0 0 0 0 0 0 0 0 0 0 0 0 0 0 0
0 0 0 0 0 0 0 0 0 0 0 0 0 0 0 0 0 0 0 0 0 0 0 0 0 0 0 0 0 0 0 0 0 0 0 0 0 0 0 0 0 0 0 0
0 0 0 0 0 0 0 0 0 0 0 0 0 0 0 0 0 0 0 0 0 0 0 0 0 0 0 0 0 0 0 0 0 0 0 0 0 0 0 0 0 0 0 0
0 0 0 0 0 0 0 0 0 0 0 0 0 0 0 0 0 0 0 0 0 0 0 0 0 0 0 0 0 0 0 0 0 0 0 0 0 0 0 0 0 0 0 0
0 0 0 0 0 0 0 0 0 0 0 0 0 0 0 0 0 0 0 0 0 0 0 0 0 0 0 0 0 0 0 0 0 0 0 0 0 0 0 0 0 0 0 0
0 0 0 0 0 0 0 0 0 0 0 0 0 0 0 0 0 0 0 0 0 0 0 0 0 0 0 0 0 0 0 0 0 0 0 0 0 0 0 0 0 0 0 0
0 0 0 0 0 0 0 0 0 0 0 0 0 0 0 0 0 0 0 0 0 0 0 0 0 0 0 0 0 0 0 0 0 0 0 0 0 0 0 0 0 0 0 0
0 0 0 0 0 0 0 0 0 0 0 0 0 0 0 0 0 0 0 0 0 0 0 0 0 0 0 0 0 0 0 0 0 0 0 0 0 0 0 0 0 0 0 0
0 0 0 0 0 0 0 0 0 0 0 0 0 0 0 0 0 0 0 0 0 0 0 0 0 0 0 0 0 0 0 0 0 0 0 0 0 0 0 0 0 0 0 0
0 0 0 0 0 0 0 0 0 0 0 0 0 0 0 0 0 0 0 0 0 0 0 0 0 0 0 0 0 0 0 0 0 0 0 0 0 0 0 0 0 0 0 0
0 0 0 0 0 0 0 0 0 0 0 0 0 0 0 0 0 0 0 0 0 0 0 0 0 0 0 0 0 0 0 0 0 0 0 0 0 0 0 0 0 0 0 0
0 0 0 0 0 0 0 0 0 0 0 0 0 0 0 0 0 0 0 0 0 0 0 0 0 0 0 0 0 0 0 0 0 0 0 0 0 0 0 0 0 0 0 0
0 0 0 0 0 0 0 0 0 0 0 0 0 0 0 0 0 0 0 0 0 0 0 0 0 0 0 0 0 0 0 0 0 0 0 0 0 0 0 0 0 0 0 0
0 0 0 0 0 0 0 0 0 0 0 0 0 0 0 0 0 0 0 0 0 0 0 0 0 0 0 0 0 0 0 0 0 0 0 0 0 0 0 0 0 0 0 0
0 0 0 0 0 0 0 0 0 0 0 0 0 0 0 0 0 0 0 0 0 0 0 0 0 0 0 0 0 0 0 0 0 0 0 0 0 0 0 0 0 0 0 0
0 0 0 0 0 0 0 0 0 0 0 0 0 0 0 0 0 0 0 0 0 0 0 0 0 0 0 0 0 0 0 0 0 0 0 0 0 0 0 0 0 0 0 0
0 0 0 0 0 0 0 0 0 0 0 0 0 0 0 0 0 0 0 0 0 0 0 0 0 0 0 0 0 0 0 0 0 0 0 0 0 0 0 0 0 0 0 0
Wind_Speed
9 8 6 9 12 13 15 16 14 14 15 13 9 8 6 5 4 4 4 4 3 3 2 2 2 3 3 4 4 3 2 2 2 2 2 2 1 1 1 1 0 0 0 1
7 7 8 11 15 16 17 17 19 18 18 11 7 6 6 6 6 6 6 5 4 3 3 2 2 3 3 3 3 3 2 2 2 2 2 2 2 1 1 1 1 0 0 0
7 3 4 13 15 16 13 12 13 17 15 7 7 8 8 7 7 7 6 5 5 4 3 2 2 3 3 3 3 2 2 2 2 2 1 2 1 1 1 1 1 1 1 0
4 2 12 8 2 8 11 12 12 12 10 8 8 6 6 5 6 6 5 5 4 3 3 2 2 2 2 2 2 2 2 2 2 2 1 1 1 1 1 1 1 1 1 1
4 8 13 9 4 6 8 11 10 11 10 6 3 4 5 4 5 6 5 4 3 3 2 2 2 2 2 2 2 2 2 2 2 2 1 1 1 1 1 1 1 1 1 1
6 8 11 7 2 3 3 9 5 7 8 5 3 6 5 2 3 3 3 2 2 2 2 2 2 2 2 2 2 2 3 3 2 2 2 2 1 1 1 1 1 1 1 1
10 10 11 4 3 6 7 5 1 5 7 6 7 6 2 1 2 2 2 2 2 3 3 3 2 2 3 3 3 3 3 2 2 2 2 2 1 1 1 1 1 1 1 1
8 10 11 4 7 8 4 2 1 3 4 5 5 3 2 2 2 3 3 3 3 3 3 3 3 3 3 4 4 3 2 2 2 2 2 1 1 1 1 1 1 1 1 1
9 8 2 5 5 2 1 3 3 3 3 4 4 4 4 3 3 3 3 3 3 3 3 3 3 3 4 4 3 3 2 2 2 2 2 2 2 2 2 2 2 2 1 1
6 8 4 5 4 3 3 4 4 4 3 3 4 4 4 4 3 3 3 3 3 3 3 4 3 3 4 3 3 3 3 3 2 2 2 2 2 2 2 2 2 2 2 2
8 6 4 5 5 6 5 4 4 4 4 4 4 5 5 4 4 4 3 3 3 4 4 4 3 3 3 3 3 3 3 3 3 3 2 2 2 2 3 3 4 4 3 3
8 5 6 6 4 4 5 6 5 5 4 4 4 5 5 4 4 4 4 3 3 4 4 4 4 4 4 3 3 4 4 4 3 3 2 2 2 2 4 5 5 6 6 5
6 4 4 5 4 3 5 6 5 4 4 4 4 4 4 4 3 3 3 4 4 4 4 4 4 5 4 3 3 4 5 4 3 3 3 3 3 3 3 3 3 4 5 6
3 3 4 4 4 4 4 4 3 3 3 3 3 2 2 3 3 4 5 4 4 3 4 4 4 5 4 3 4 4 5 4 4 3 3 3 3 3 3 3 3 3 3 5
4 4 5 3 3 3 3 2 2 3 3 3 2 2 2 3 4 5 4 2 2 3 4 4 5 5 4 3 4 4 4 4 3 3 3 3 3 3 3 4 4 3 2 3
3 2 2 3 3 4 3 3 3 5 4 4 3 3 3 4 4 4 3 2 3 5 5 5 6 5 3 3 4 4 4 5 4 3 3 4 4 4 4 4 4 3 3 3
2 3 3 4 4 4 4 4 5 5 5 4 4 3 3 3 3 4 4 3 4 5 5 6 6 4 3 4 4 3 3 3 4 4 4 4 4 4 4 4 4 4 4 4
4 5 4 5 5 5 5 4 4 5 5 4 3 2 3 4 5 5 4 3 3 4 5 5 4 3 4 4 4 3 3 3 3 4 4 4 4 4 4 4 5 5 4 4
2 3 3 3 4 4 4 4 4 4 4 3 3 4 5 5 5 4 3 3 4 5 4 3 4 3 3 4 4 3 3 4 4 4 4 4 4 4 4 5 5 5 4 4
2 2 2 2 2 2 3 3 3 3 3 3 3 3 4 4 3 3 3 4 5 4 3 3 3 3 3 4 4 3 3 4 4 4 4 4 4 5 5 5 5 5 5 4
2 2 2 2 3 3 3 3 3 3 3 2 3 4 4 4 3 3 3 4 3 2 3 3 3 3 3 3 3 3 3 4 4 4 4 4 4 5 5 5 5 5 5 5
2 2 2 2 3 3 3 2 2 3 2 2 2 2 2 3 3 3 4 4 3 3 2 2 2 3 3 3 3 3 4 4 4 4 4 4 4 5 5 5 5 5 5 5
2 2 2 2 3 3 3 2 2 2 2 3 3 3 3 3 3 3 4 2 2 3 3 3 4 4 4 3 3 3 4 4 4 4 4 4 5 5 5 5 5 5 5 5
2 2 2 2 1 2 3 3 2 2 3 3 3 3 3 3 3 3 3 3 4 4 3 4 5 5 4 3 3 3 4 4 4 4 4 4 4 4 5 5 5 5 5 6
2 2 2 1 2 2 3 3 3 2 2 2 3 3 2 2 3 3 3 4 4 4 4 5 5 5 3 3 3 3 4 4 4 4 4 4 4 5 5 5 5 5 5 5
1 2 2 2 2 2 2 2 2 2 2 3 3 2 2 2 2 3 3 3 4 4 4 3 3 3 3 3 4 4 4 4 4 4 5 5 5 5 5 5 7 6 5 6
1 1 1 2 2 1 1 2 2 3 2 3 3 3 3 3 3 3 3 3 3 3 3 3 3 3 3 3 4 4 4 4 4 5 5 5 5 5 5 6 5 5 5 6
Wind_Direction
258 262 243 244 243 230 226 233 242 252 258 263 262 258 257 252 243 244 248 258 266 279 298 311 324 336 342 342 343 336 329 323 324 325 322 328 333 334 356 1 359 324 311 312
261 255 252 256 250 238 237 241 247 258 262 266 276 261 249 245 240 245 248 251 253 258 273 287 302 315 322 330 335 331 326 326 329 327 338 347 339 347 360 345 335 331 235 281
254 275 273 255 241 232 230 229 234 246 257 264 262 252 248 243 238 245 248 246 243 244 251 267 285 294 297 310 322 323 322 327 326 325 341 350 346 344 337 329 331 319 333 332
247 226 244 251 227 228 231 241 238 249 260 258 263 274 264 244 236 244 245 242 237 236 247 263 277 284 295 302 305 311 322 323 321 320 330 336 340 337 332 327 314 313 330 340
214 243 264 271 236 201 218 250 241 243 255 262 288 286 256 232 229 236 237 236 229 222 229 243 255 265 277 282 290 295 303 312 311 301 295 299 296 299 312 318 313 315 324 333
210 233 249 260 166 182 201 254 225 226 243 245 231 256 257 209 225 231 227 221 215 212 218 228 241 245 248 263 274 281 289 294 299 293 274 265 273 285 294 291 290 307 315 317
221 239 258 259 161 167 205 256 236 229 234 222 231 256 290 205 221 220 217 217 212 212 221 227 226 221 234 251 260 272 281 287 288 285 276 263 261 264 266 269 274 285 294 312
204 225 245 164 162 197 240 353 300 255 238 230 251 278 278 240 230 227 223 218 217 221 232 235 226 221 236 254 270 277 271 270 274 277 274 263 245 249 242 224 226 248 267 295
206 225 278 166 195 226 298 275 280 268 260 237 252 261 259 249 237 229 228 230 226 224 235 245 239 232 239 260 276 272 260 259 267 273 270 259 240 236 237 232 229 239 243 260
240 253 252 230 246 274 274 277 290 285 265 243 248 251 254 248 242 234 233 232 228 228 239 251 252 250 253 268 270 252 248 255 256 252 252 254 249 237 232 231 230 231 236 243
248 266 284 251 251 269 276 281 288 291 279 256 247 252 249 250 249 243 238 236 231 233 241 254 261 260 267 268 257 243 245 250 250 247 246 251 254 246 240 242 234 230 235 235
238 240 242 266 277 270 267 269 269 273 282 279 257 252 255 255 251 244 240 238 237 241 247 256 260 261 266 260 247 238 238 240 239 239 240 242 249 264 266 260 261 255 249 249
253 277 266 281 292 282 272 277 280 274 265 270 270 255 252 258 257 249 244 239 239 243 250 257 260 262 265 257 240 237 238 240 239 236 235 237 240 245 262 281 272 267 260 259
265 276 261 262 279 299 292 289 294 295 285 274 271 267 258 257 256 245 245 249 251 253 255 254 255 261 263 250 240 241 242 241 239 238 238 236 236 239 243 249 258 265 272 267
267 258 251 281 296 301 305 308 307 292 290 289 278 257 248 247 252 258 263 264 259 254 252 250 253 261 263 244 239 242 244 239 234 237 238 238 237 237 238 241 245 254 268 266
276 262 252 259 275 292 300 290 277 280 283 277 269 263 258 256 261 266 262 236 238 251 255 253 255 259 252 239 241 244 244 239 233 232 233 234 233 232 233 235 237 241 247 254
225 246 247 258 269 277 274 269 265 270 274 266 264 267 260 256 262 262 261 251 252 257 257 253 254 255 242 235 237 242 243 237 229 233 234 234 234 234 234 232 233 239 247 247
240 246 246 251 256 269 279 282 274 271 268 268 266 252 243 240 250 261 268 274 276 274 263 254 250 246 238 238 238 242 241 240 235 238 240 240 240 238 235 233 234 239 245 246
270 267 271 270 266 263 271 281 284 282 283 268 249 246 248 249 251 258 260 255 258 267 269 257 256 250 249 247 246 244 242 240 239 239 240 241 242 237 233 234 236 239 240 238
293 298 292 295 301 279 279 288 292 288 283 264 251 255 261 260 251 248 245 250 253 263 275 273 264 255 253 250 248 244 240 242 245 247 243 241 239 236 234 235 237 238 238 237
283 295 295 292 299 297 290 289 285 284 287 264 246 254 263 273 259 242 242 264 277 280 276 268 264 265 262 256 242 242 239 241 245 247 247 248 247 241 237 236 237 238 240 240
274 279 283 287 290 298 305 299 288 283 288 278 264 261 270 276 268 259 247 255 277 290 289 278 275 274 271 262 251 246 244 244 246 248 249 249 250 248 244 241 241 242 242 242
276 275 279 279 281 293 305 303 294 286 279 277 271 267 266 272 271 266 277 277 282 286 285 279 281 278 275 265 257 252 251 250 250 250 251 252 253 254 252 249 247 245 244 244
290 287 290 299 298 295 296 304 305 296 288 287 281 272 269 278 283 274 275 286 293 290 286 282 280 281 280 272 264 259 257 256 256 257 257 256 256 257 257 255 253 251 248 249
287 291 291 287 285 287 293 308 309 304 306 307 312 310 293 277 271 291 300 292 291 293 291 290 291 293 286 273 266 263 261 258 258 258 258 257 257 257 257 258 257 256 253 250
279 286 285 282 280 289 295 296 297 302 307 310 315 319 317 310 297 292 294 295 295 293 292 293 292 288 279 275 271 269 266 264 260 256 256 259 260 259 259 260 262 259 258 255
290 291 293 303 305 299 291 286 285 291 294 294 302 309 315 314 307 303 301 300 300 298 295 294 291 286 282 278 276 273 271 268 265 262 261 260 261 260 261 261 261 262 261 259